Smyrna, TN

7:37 PM CST on November 19, 2019 (GMT -0600)
Smyrna

Weather History for KMQY - October, 2019

Change the Weather History Date:

Saturday, October 12, 2019

  Actual Average Record
Temperature  
Mean Temperature 52 °F -  
Max Temperature 62 °F 69 °F 86 °F (2008)
Min Temperature 39 °F 50 °F 32 °F (2006)
Degree Days  
Heating Degree Days 14    
Growing Degree Days 2 (Base 50)    
Moisture  
Dew Point 39 °F    
Average Humidity 70    
Maximum Humidity 97    
Minimum Humidity 34    
Precipitation  
Precipitation 0.03 in - - ()
Sea Level Pressure  
Sea Level Pressure 30.19 in    
Wind  
Wind Speed 9 mph (NNW)    
Max Wind Speed 14 mph    
Max Gust Speed 22 mph    
Visibility 10 miles    
Events Rain    
Averages and records for this station are not official NWS values.
T = Trace of Precipitation, MM = Missing Value Source: NWS Daily Summary

Daily Weather History Graph

Daily Weather History Graph

Search for Another Location

Airport or City:

Astronomy

Oct. 12, 2019 Rise Set
Actual Time 6:50 AM CDT 6:14 PM CDT
Civil Twilight 6:24 AM CDT 6:40 PM CDT
Nautical Twilight 5:54 AM CDT 7:09 PM CDT
Astronomical Twilight 5:24 AM CDT 7:39 PM CDT
Moon 6:06 PM CDT (10/12) 5:31 AM CDT (10/12)
Length of Visible Light 12h 15m
Length of Day
11h 24m
Waxing Gibbous, 99% of the Moon is Illuminated
Oct 12
Waxing Gibbous
Oct 13
Full
Oct 21
Last Quarter
Oct 27
New
Nov 4
First Quarter

Hourly Weather History & Observations

Time (CDT) Temp. Windchill Dew Point Humidity Pressure Visibility Wind Dir Wind Speed Gust Speed Precip Events Conditions
12:46 AM 48.2 °F - 46.4 °F 93% 30.17 in 8.0 mi NNW 10.4 mph - 0.01 in Rain Light Rain
12:54 AM 48.2 °F - 46.4 °F 93% 30.17 in 9.0 mi NNW 10.4 mph - 0.01 in Rain Light Rain
12:56 AM 48.9 °F - 46.9 °F 93% 30.19 in 8.0 mi NW 9.2 mph - 0.01 in Rain Light Rain
1:10 AM 48.2 °F - 46.4 °F 93% 30.17 in 5.0 mi NW 13.8 mph - 0.01 in Rain Light Rain
1:29 AM 46.4 °F 40.4 °F 44.6 °F 93% 30.18 in 9.0 mi North 13.8 mph - 0.02 in Rain Light Rain
1:56 AM 48.0 °F - 45.0 °F 89% 30.20 in 10.0 mi North 8.1 mph - 0.02 in Rain Light Rain
2:32 AM 46.4 °F 41.9 °F 44.6 °F 93% 30.19 in 10.0 mi North 9.2 mph - 0.00 in Rain Light Rain
2:56 AM 46.9 °F - 45.0 °F 93% 30.21 in 10.0 mi North 11.5 mph - 0.00 in Rain Light Rain
3:56 AM 46.0 °F 41.4 °F 43.0 °F 89% 30.21 in 10.0 mi NNW 9.2 mph - 0.00 in   Overcast
4:56 AM 46.0 °F 41.9 °F 42.1 °F 86% 30.22 in 10.0 mi NNW 8.1 mph - 0.00 in   Overcast
5:56 AM 46.0 °F 41.0 °F 42.1 °F 86% 30.23 in 10.0 mi North 10.4 mph - N/A   Overcast
6:56 AM 45.0 °F 39.3 °F 37.0 °F 74% 30.24 in 10.0 mi North 11.5 mph - N/A   Mostly Cloudy
7:26 AM 44.6 °F 39.2 °F 35.6 °F 71% 30.23 in 10.0 mi North 10.4 mph - N/A   Scattered Clouds
7:56 AM 45.0 °F 38.9 °F 35.1 °F 68% 30.26 in 10.0 mi North 12.7 mph - N/A   Clear
8:56 AM 48.0 °F - 34.0 °F 58% 30.26 in 10.0 mi North 12.7 mph 21.9 mph N/A   Clear
9:56 AM 50.0 °F - 33.1 °F 52% 30.27 in 10.0 mi North 11.5 mph - N/A   Clear
10:56 AM 53.1 °F - 33.1 °F 47% 30.26 in 10.0 mi Variable 6.9 mph - N/A   Clear
11:56 AM 55.0 °F - 33.1 °F 43% 30.25 in 10.0 mi Variable 6.9 mph - N/A   Clear
12:56 PM 55.9 °F - 33.1 °F 42% 30.22 in 10.0 mi Calm Calm - N/A   Clear
1:56 PM 59.0 °F - 33.1 °F 38% 30.20 in 10.0 mi WNW 4.6 mph - N/A   Clear
2:56 PM 61.0 °F - 32.0 °F 34% 30.18 in 10.0 mi NW 8.1 mph - N/A   Clear
3:56 PM 61.0 °F - 32.0 °F 34% 30.17 in 10.0 mi Variable 6.9 mph - N/A   Clear
4:56 PM 61.0 °F - 33.1 °F 35% 30.16 in 10.0 mi Calm Calm - N/A   Clear
5:11 PM 60.8 °F - 32.0 °F 34% 30.13 in 10.0 mi North 4.6 mph - N/A   Clear
5:56 PM 59.0 °F - 33.1 °F 38% 30.15 in 10.0 mi NNW 4.6 mph - N/A   Clear
6:56 PM 52.0 °F - 37.0 °F 57% 30.14 in 10.0 mi Calm Calm - N/A   Clear
7:56 PM 46.0 °F - 39.9 °F 79% 30.14 in 10.0 mi Calm Calm - N/A   Clear
8:56 PM 44.1 °F - 39.9 °F 85% 30.14 in 10.0 mi Calm Calm - N/A   Clear
9:56 PM 43.0 °F - 39.0 °F 86% 30.14 in 10.0 mi Calm Calm - N/A   Clear
10:56 PM 42.1 °F - 39.9 °F 92% 30.13 in 10.0 mi Calm Calm - N/A   Clear
11:56 PM 39.9 °F - 39.0 °F 97% 30.13 in 10.0 mi Calm Calm - N/A   Clear